Trenton, NJ

10:27 PM EDT on August 27, 2016 (GMT -0400)
Trenton Mercer

Weather History for KTTN - April, 2013

Change the Weather History Date:

Sunday, April 21, 2013

  Actual Average Record
Temperature  
Mean Temperature 45 °F 53 °F  
Max Temperature 55 °F 63 °F 87 °F (1985)
Min Temperature 34 °F 43 °F 28 °F (1875)
Degree Days  
Heating Degree Days 20 12  
Month to date heating degree days 275 323  
Since 1 July heating degree days 4661 4869  
Cooling Degree Days 0 0  
Month to date cooling degree days 14 0  
Year to date cooling degree days 14 0  
Moisture  
Dew Point 23 °F    
Average Humidity 43    
Maximum Humidity 57    
Minimum Humidity 29    
Precipitation  
Precipitation 0.00 in 0.12 in 1.80 in (1991)
Month to date precipitation 2.01 2.66  
Year to date precipitation 9.22 12.27  
Sea Level Pressure  
Sea Level Pressure 30.51 in    
Wind  
Wind Speed 6 mph (NNE)    
Max Wind Speed 18 mph    
Max Gust Speed 23 mph    
Visibility 10 miles    
Events      
T = Trace of Precipitation, MM = Missing Value Source: NWS Daily Summary

Daily Weather History Graph

Daily Weather History Graph

Search for Another Location

Airport or City:

Trip Planner

Search our weather history database for the weather conditions in past years. The results will help you decide how hot, cold, wet, or windy it might be!

Date:

Astronomy

Apr. 21, 2013 Rise Set
Actual Time 6:11 AM EDT 7:44 PM EDT
Civil Twilight 5:43 AM EDT 8:13 PM EDT
Nautical Twilight 5:08 AM EDT 8:47 PM EDT
Astronomical Twilight 4:32 AM EDT 9:24 PM EDT
Moon 3:26 PM EDT (4/21) 3:33 AM EDT (4/21)
Length of Visible Light 14h 29m
Length of Day
13h 32m
Waxing Gibbous, 79% of the Moon is Illuminated
Apr 21
Waxing Gibbous
Apr 25
Full
May 2
Last Quarter
May 9
New
May 18
First Quarter

Hourly Weather History & Observations

Time (EDT) Temp. Windchill Dew Point Humidity Pressure Visibility Wind Dir Wind Speed Gust Speed Precip Events Conditions
12:53 AM 44.1 °F 37.1 °F 23.0 °F 43% 30.31 in 10.0 mi North 15.0 mph - N/A   Clear
1:53 AM 41.0 °F 35.8 °F 21.9 °F 47% 30.35 in 10.0 mi North 8.1 mph - N/A   Clear
2:53 AM 39.0 °F 31.0 °F 21.0 °F 49% 30.38 in 10.0 mi North 13.8 mph 18.4 mph N/A   Clear
3:53 AM 37.0 °F 31.6 °F 21.0 °F 52% 30.40 in 10.0 mi North 6.9 mph - N/A   Clear
4:53 AM 35.1 °F 28.6 °F 19.0 °F 52% 30.42 in 10.0 mi North 8.1 mph - N/A   Clear
5:53 AM 35.1 °F 30.1 °F 19.0 °F 52% 30.45 in 10.0 mi North 5.8 mph - N/A   Clear
6:53 AM 36.0 °F 31.1 °F 19.9 °F 52% 30.49 in 10.0 mi North 5.8 mph - N/A   Clear
7:53 AM 39.0 °F 33.4 °F 21.0 °F 49% 30.52 in 10.0 mi NNE 8.1 mph - N/A   Clear
8:53 AM 39.9 °F 32.5 °F 21.0 °F 47% 30.53 in 10.0 mi North 12.7 mph - N/A   Clear
9:53 AM 42.1 °F 37.7 °F 21.9 °F 45% 30.56 in 10.0 mi North 6.9 mph 17.3 mph N/A   Clear
10:53 AM 44.1 °F 40.1 °F 21.9 °F 42% 30.57 in 10.0 mi NE 6.9 mph - N/A   Clear
11:53 AM 45.0 °F 41.8 °F 23.0 °F 42% 30.56 in 10.0 mi North 5.8 mph - N/A   Clear
12:53 PM 48.0 °F - 24.1 °F 39% 30.55 in 10.0 mi NE 6.9 mph - N/A   Clear
1:53 PM 50.0 °F - 25.0 °F 38% 30.54 in 10.0 mi Variable 6.9 mph - N/A   Clear
2:53 PM 51.1 °F - 24.1 °F 35% 30.53 in 10.0 mi Variable 4.6 mph - N/A   Clear
3:53 PM 52.0 °F - 23.0 °F 32% 30.52 in 10.0 mi Calm Calm - N/A   Clear
4:53 PM 54.0 °F - 23.0 °F 30% 30.52 in 10.0 mi NNE 4.6 mph - N/A   Clear
5:53 PM 54.0 °F - 23.0 °F 30% 30.52 in 10.0 mi NE 5.8 mph - N/A   Clear
6:53 PM 52.0 °F - 23.0 °F 32% 30.53 in 10.0 mi Calm Calm - N/A   Clear
7:53 PM 48.0 °F - 26.1 °F 42% 30.55 in 10.0 mi SSE 8.1 mph - N/A   Clear
8:53 PM 46.0 °F 42.5 °F 27.0 °F 47% 30.58 in 10.0 mi South 6.9 mph - N/A   Clear
9:53 PM 43.0 °F 39.5 °F 27.0 °F 53% 30.59 in 10.0 mi SSE 5.8 mph - N/A   Clear
10:53 PM 42.1 °F 40.2 °F 27.0 °F 55% 30.59 in 10.0 mi SW 3.5 mph - N/A   Clear
11:53 PM 42.1 °F - 28.0 °F 58% 30.60 in 10.0 mi Calm Calm - N/A   Clear